Location: Red Rock Farm
(35.2100°N, 97.2200°W)
Time: 15:50:37
(UTC-06:00)

Daily predictions for brighter satellites

Satellite Brightness Start Highest point End
(mag) Time Altitude Azimuth Time Altitude Azimuth Time Altitude Azimuth
DELTA 2 R/B (1) 3.9 17:37:29 10° W 17:42:58 58° N 17:48:28 10° ENE
GOES 2 Rocket 4.4 17:40:56 10° WSW 17:44:47 34° S 17:49:09 10° ESE
Cosmos 1455 Rocket 3.5 17:40:42 10° N 17:44:52 40° E 17:48:58 10° SSE
Meteor 1-19 Rocket 4.3 17:40:12 10° S 17:45:45 62° E 17:51:26 10° NNE
AQUARIUS 4.3 17:42:29 10° SSE 17:46:49 51° ENE 17:51:11 10° N
Cosmos 1544 Rocket 3.7 17:44:48 10° N 17:49:01 48° E 17:53:12 10° SSE
SJ-7 4.3 17:45:22 10° SSE 17:49:20 67° ENE 17:53:17 10° N
Cosmos 1743 2.8 17:46:34 10° N 17:50:23 58° E 17:54:13 10° SSE
Cosmos 1697 Rocket 3.7 17:45:52 10° SSE 17:50:32 27° ESE 17:55:13 10° NE
YAOGAN 1 3.4 17:47:24 10° SE 17:51:06 28° ENE 17:54:49 10° NNE
Delta 2 Rocket 4.1 17:48:23 10° W 17:54:06 87° S 17:59:21 10° E
CZ-2C R/B 3.9 17:51:48 10° NNE 17:56:26 55° E 18:01:04 10° S
USA 116 3.4 17:55:42 10° NNE 17:58:45 48° E 18:01:45 10° S
ATLAS 2AS CENTAUR R/B 3.7 17:54:22 10° SW 18:01:53 55° NW 18:09:51 10° NNE
SMAP 3.0 17:58:08 10° SSE 18:02:46 82° ENE 18:07:26 10° N
Cosmos 2082 4.2 17:58:33 10° N 18:03:42 36° ENE 18:08:49 10° SE
BREEZE-M DEB (TANK) 3.8 18:03:00 10° WNW 18:05:29 49° SW 18:11:36 10° SE
ATLAS 3B R/B 2.7 18:01:31 10° NNW 18:08:00 53° NE 18:14:18 10° SE
COSMO-SKYMED 1 3.0 18:05:30 10° NNE 18:09:38 42° E 18:13:44 10° S
Landsat 4 3.9 18:05:58 10° NNE 18:09:41 50° E 18:13:23 10° S
OAO 1 Rocket 4.5 18:05:55 10° WSW 18:11:16 82° S 18:15:48 14° E
Cosmos 158 Rocket 4.0 18:06:25 10° N 18:11:21 50° ENE 18:16:07 10° SE
SJ 16-02 1.3 18:09:41 10° S 18:14:02 75° ESE 18:18:27 10° NNE
ERS-2 3.1 18:11:36 10° SE 18:14:40 26° ENE 18:17:45 10° NNE
USA 215 3.2 18:08:38 10° SE 18:15:11 85° NE 18:21:45 10° NW
ALOS 3.0 18:12:07 10° SE 18:16:08 29° ENE 18:20:10 10° N
Cosmos 2227 Rocket 2.2 18:10:46 10° NNW 18:16:22 60° ENE 18:21:55 10° SSE
Cosmos 1271 Rocket 3.3 18:16:06 10° NNW 18:19:50 58° W 18:23:38 10° S
CORIOLIS 4.3 18:15:18 10° S 18:20:43 81° WSW 18:26:09 10° NNW
NOSS 3-4 (A) 3.6 18:17:18 10° SSW 18:23:20 56° ESE 18:28:35 15° NE
NOSS 3-4 (C) 3.6 18:17:25 10° SSW 18:23:27 56° ESE 18:28:39 15° NE
Meteor 1-23 Rocket 4.3 18:19:28 10° S 18:25:09 63° E 18:30:48 10° NNE
Meteor 2-9 Rocket 4.0 18:23:05 10° N 18:28:36 81° E 18:33:56 10° S
SPOT 3 Rocket 3.9 18:24:20 10° SE 18:29:11 42° ENE 18:34:02 10° N
Okean 1-7 Rocket 4.4 18:26:09 10° SSE 18:29:55 29° E 18:31:34 22° NE
Cosmos 1980 Rocket 2.8 18:25:55 10° SSE 18:30:59 35° ESE 18:34:02 21° NE
IRS-1A Rocket 4.3 18:26:09 10° SSE 18:31:47 88° WSW 18:37:21 10° NNW
Atlas Centaur 2 2.9 18:27:14 10° W 18:32:16 39° SSW 18:36:07 11° SE
Cosmos 1025 Rocket 3.1 18:35:36 10° S 18:39:47 52° E 18:42:41 19° NNE
Cosmos 2297 Rocket 2.1 18:37:28 10° NNW 18:43:09 86° ENE 18:48:48 10° SSE
Cosmos 1241 Rocket 4.4 18:38:22 10° SSW 18:44:47 87° ESE 18:49:51 17° NNE
Thor Agena Rocket 4.4 18:44:03 28° E 18:44:48 29° E 18:49:20 10° SSE
Cosmos 724 4.1 18:39:33 10° NNW 18:45:20 69° ENE 18:51:08 10° SE
RESURS DK-1 3.6 18:41:59 10° SSE 18:44:47 24° ESE 18:44:47 24° ESE
ISS -3.8 18:42:25 10° NW 18:45:42 81° SW 18:47:12 29° SE
NOSS 2-2 (E) 4.1 18:44:55 10° S 18:48:22 32° ESE 18:48:22 32° ESE
CENTAUR R/B 4.0 18:42:41 10° N 18:48:58 25° NE 18:50:09 24° NE
PSLV R/B 4.4 18:46:45 10° WNW 18:49:32 28° N 18:49:35 28° N
Cosmos 1656 4.3 18:44:54 10° SW 18:50:21 54° WNW 18:55:47 10° NNE
NOSS 2-2 (C) 4.3 18:51:21 10° S 18:54:15 30° SE 18:54:15 30° SE
Nadezhda 2 Rocket 4.4 18:49:41 10° N 18:56:00 68° E 19:02:21 10° SSE
Cosmos 1269 Rocket 3.9 18:50:59 10° NNW 18:56:18 83° ENE 19:01:35 10° SSE
SKYMED 2 4.4 18:53:29 10° N 18:57:41 49° WNW 19:01:51 10° SSW
CZ-4 R/B 3.6 18:55:54 10° SSW 18:59:07 25° W 19:02:24 10° NW
Cosmos 2084 3.2 18:54:58 10° SSW 18:59:14 88° WNW 19:00:18 48° NNE
SL-16 R/B 3.9 19:06:31 10° SSE 19:08:18 17° SE 19:08:18 17° SE
USA 238 DEB 4.5 19:06:28 10° NW 19:13:24 55° WSW 19:20:23 10° S
USA 238 4.4 19:06:34 10° NW 19:13:31 56° WSW 19:20:29 10° SSE
Hubble Space Telescope 2.8 19:11:13 10° WSW 19:14:20 21° SSW 19:15:46 17° SSE
Cosmos 2360 4.1 19:10:23 10° SSW 19:16:05 82° ESE 19:18:05 43° NNE
Cosmos 2322 Rocket 3.9 19:12:12 10° SSE 19:13:50 17° SE 19:13:50 17° SE
NOAA 12 4.4 19:12:26 10° S 19:17:41 67° WSW 19:22:55 10° NNW
Okean 2 4.3 19:15:15 10° SSW 19:19:12 46° W 19:21:27 23° NNW
SL-24 R/B - RUBIN 2 4.4 19:14:23 10° SW 19:20:43 73° WNW 19:23:07 37° NNE
FENGYUN 3A 4.1 19:15:53 10° S 19:21:12 61° W 19:26:31 10° NNW
DELTA 2 R/B (1) 3.6 19:24:21 10° WNW 19:29:50 62° N 19:29:50 62° N
S3M 3.8 19:28:00 10° S 19:34:05 76° E 19:34:51 67° NE
Cosmos 1697 Rocket 4.1 19:29:10 10° SW 19:34:18 35° WNW 19:37:59 17° N
NOSS 3-2 (A) 4.4 19:35:23 10° NW 19:43:04 66° WSW 19:51:15 10° SSE
NOSS 3-2 (C) 4.1 19:42:24 10° NW 19:50:09 77° WSW 19:57:28 14° SSE
FengYun 1-2 T 4.5 19:44:51 10° S 19:50:24 67° WSW 19:56:02 10° NNW
CZ-3A R/B 4.3 19:37:03 10° WSW 19:57:42 37° S 19:59:04 34° SSE
Cosmos 1980 Rocket 3.8 20:10:07 10° WSW 20:14:57 28° WNW 20:15:52 27° NW
Atlas Centaur 2 4.4 20:18:03 10° WSW 20:18:47 12° SW 20:18:47 12° SW
CENTAUR R/B 3.9 20:32:27 10° NNW 20:37:24 43° NW 20:37:24 43° NW
